BREEZE-M DEB (TANK), 55843

Orbit data source: Space-Track

BREEZE-M DEB (TANK), 55843 is space debris in HEO originally from a launch on Sun, 12 Mar 2023 UTC launched from the Tyuratam Missile And Space Complex (TTMTR). Debris objects in space refer to the collection of defunct objects orbiting the Earth. Examples of debris include non-operational satellites, rocket bodies, and fragments generated from explosions, collisions, or faulty payload assembly.

Loading next visibility...
Identifier
55843, 2023-031C
Orbit
HEO
Last TLE update
3 weeks ago
Origin
Manufacturer
Khrunichev
Mission
Spacecraft
Bus & Motor
BRIZ TANK, Unknown motor
Mass
~1,000 kg wet, 1,000 kg dry
Launch date (UTC)
2023-03-12 (2 years ago)
Launch vehicle
Unknown
Launch site
Tyuratam Missile And Space Complex (TTMTR)
Object type
Payload
Rocket body
Debris
Shape & HBR
Torus, 4 m
Radar Cross Section
8.218 m², Large (>1 m²)

Expand to show TLE details & history

TLE from 3 weeks ago
0 BREEZE-M DEB (TANK)
1 55843U 23031C   25161.80000000  .00000123 -13292-6  00000+0 0  9996
2 55843  48.6630 260.9700 6265222 236.4400  96.9820  3.77318395 20745
Epoch: 2025-06-10T19:11Z
TLE epoch observation values (Epoch: 2025-06-10T19:11:59.999Z)
Latitude
21.32823°
Longitude
93.63338°
Altitude
17,465.602 km
Speed
3.251 km/s
True Right ascension
18h 44m 06s
True Declination
21° 17' 36"
Sunlit
Object was in daylight at epoch
Visualization orbit readout
Latitude
26.85775°
Longitude
87.90948°
Altitude
16,719.408 km
Speed
3.413 km/s
Apparent Right ascension
17h 35m 54s
Apparent Declination
15° 26' 45"
Sunlit
Object is in daylight
Visualization observer readout
Local Sidereal Time
01:53:08
Azimuth
304.776° NW
Elevation
-14.229°
Doppler factor
1
Orbital elements
Apogee altitude
21,971.27 km
Perigee altitude
131.38 km
Semi-major axis
17,429.462 km
Eccentricity
0.62652
Inclination
48.663°
RAAN
260.97°
Arg. of periapsis
236.44°
True anomaly
Unknown
Mean anomaly
96.982°
Eccentric anomaly
Unknown
Mean motion
0.94323 °/min
Orbital period
381.67 mins
BSTAR
0
Loading maneuver chart data...
Loading SW <> Apogee altitude chart data...
Loading historical data...
Loading historical data...
Loading historical data...
Loading historical data...
Loading historical data...
Loading historical data...
Loading historical data...
Other satellites on launch #31 in the year 2023 (2023-03-12 UTC)

BREEZE-M DEB (TANK) Visibility forecast

Observer location: undefined°, undefined°

Span
Click to sort rows by Start time (UTC) header in descending order
Start Az.
Max El. time (UTC)
Max El. Az.
Max El.
End time (UTC)
End Az.
117 mins2025-07-03 16:31:12.455Z313.649° NW2025-07-03 18:05:12.455Z286.121° WNW19.459°2025-07-03 18:28:12.455Z245.463° WSW
257 mins2025-07-04 01:58:12.455Z119.024° SE2025-07-04 04:01:12.455Z67.856° E29.028°2025-07-04 06:15:12.455Z51.273° ENE
311 mins2025-07-04 08:23:12.455Z246.252° WSW2025-07-04 12:54:12.455Z34.228° NE44.874°2025-07-04 13:34:12.455Z120.797° SE
|